This is the latest recevied weather packets stored in our database for station/object KO4WIL-13. If no packets are shown the sender has not sent any weather packets the latest 10 day(s).
| Time | Temp. | Humidity | Pressure | Rain* | Wind** | Luminosity | Snow |
|---|---|---|---|---|---|---|---|
| 1777995185 | 19.44° C | 56% | 967.4 hPa | 0 mm | - | - | - |
| 1777994883 | 19.44° C | 57% | 967.4 hPa | 0 mm | - | - | - |
| 1777994581 | 19.44° C | 59% | 967.4 hPa | 0 mm | - | - | - |
| 1777994278 | 18.89° C | 57% | 967.4 hPa | 0 mm | - | - | - |
| 1777993975 | 18.89° C | 58% | 967.3 hPa | 0 mm | - | - | - |
| 1777993673 | 18.89° C | 58% | 967.3 hPa | 0 mm | - | - | - |
| 1777993371 | 18.89° C | 56% | 967.3 hPa | 0 mm | - | - | - |
| 1777993069 | 18.33° C | 58% | 967.3 hPa | 0 mm | - | - | - |
| 1777992767 | 18.33° C | 57% | 967.2 hPa | 0 mm | - | - | - |
| 1777992466 | 18.33° C | 58% | 967.3 hPa | 0 mm | - | - | - |
| 1777992163 | 18.33° C | 59% | 967.3 hPa | 0 mm | - | - | - |
| 1777991860 | 18.33° C | 57% | 967.2 hPa | 0 mm | - | - | - |
| 1777991559 | 18.33° C | 64% | 967.2 hPa | 0 mm | - | - | - |
| 1777991256 | 18.33° C | 60% | 967.2 hPa | 0 mm | - | - | - |
| 1777990954 | 18.33° C | 64% | 967.3 hPa | 0 mm | - | - | - |
| 1777990652 | 18.33° C | 63% | 967.4 hPa | 0 mm | - | - | - |
| 1777990350 | 18.33° C | 61% | 967.4 hPa | 0 mm | - | - | - |
| 1777990047 | 18.33° C | 58% | 967.4 hPa | 0 mm | - | - | - |
| 1777989745 | 18.33° C | 63% | 967.4 hPa | 0 mm | - | - | - |
| 1777989442 | 18.33° C | 61% | 967.4 hPa | 0 mm | - | - | - |
| 1777988839 | 18.89° C | 62% | 967.2 hPa | 0 mm | - | - | - |
| 1777988535 | 18.89° C | 60% | 967 hPa | 0 mm | - | - | - |
| 1777988233 | 18.89° C | 57% | 967.1 hPa | 0 mm | - | - | - |
| 1777987931 | 18.89° C | 58% | 967.1 hPa | 0 mm | - | - | - |
| 1777987630 | 18.89° C | 60% | 967.1 hPa | 0 mm | - | - | - |
* Rain latest hour (hover to see other rain measurements)
** Current wind speed in m/s (hover to see current wind gust speed)